Погода в Ершове

Россия / Псковская область     57°56′36″N   28°13′41″E
темп.,
°C
ветер,
м/с
пор.,
м/с
влажн.,
%
обл.,
%
осадки,
мм/ч
давл.,
гПа
погр.,
м
20 июня, вс
вс2000:00+19ююв36780 0.0 101988
03:00+17ююв38860 0.0 1019130
06:00+18ююв37885 0.0 1019172
09:00+23ю35680 0.0 1019406
12:00+27ю56530 0.0 10181172
15:00+29ююз46403 0.0 10171912
18:00+29ю344519 0.0 10161293
21:00+24ю367049 0.0 1016116
21 июня, пн
пн2100:00+21ююв348140 0.0 101749
03:00+19ю38942 1.1 1017129
06:00+20юв26950 0.8 1017131
09:00+24ююв47730 0.8 1017444
12:00+28ю46565 0.0 1017976
15:00+30ю46465 0.0 10161199
18:00+30ю364990 0.0 10151116
21:00+25вюв347159 0.0 101565
22 июня, вт
вт2200:00+21юв367853 0.0 101695
03:00+19юв37837 0.0 1016134
06:00+19юв388226 0.0 1016197
09:00+25юв486796 0.0 1015482
12:00+28ююв5852100 0.0 10141203
15:00+29ю594874 0.0 10141841
18:00+30ю485031 0.0 10131788
21:00+25зюз247488 0.1 101373
23 июня, ср
ср2300:00+22ю368468 0.0 1014105
03:00+20ююв359318 0.1 101593
06:00+21ююв259021 0.0 1015148
09:00+25ю2471100 0.1 1016411
12:00+25ю3783100 4.8 1016340
15:00+28ю4763100 6.2 1016612
18:00+27з356563 0.1 1016429
21:00+24юз0083100 0.3 101611
24 июня, чт
чт2400:00+21ююв128879 1.4 101715
03:00+20ююв229463 1.7 101725
06:00+21ю229144 0.0 101770
09:00+25ю237569 0.1 1017415
12:00+29ююз335740 0.2 10171098
15:00+25ссз3475100 2.1 1017234
18:00+26сз127197 0.9 1015119
21:00+19зюз2490100 7.4 101791